[[{"header":{"parameterUnit":"m.s-1","parameterCategory":1,"la1":30.2991,"la2":30.254,"lo1":-89.0895,"lo2":-89.0444,"dy":0.0017,"dx":0.0017,"nx":28,"ny":28,"refTime":"2026-01-09T09:00:00:Z","depth":0,"parameterNumber":2,"parameterNumberName":"U-component_of_WINDS"},"data":[0,0,0,0,0,0,0,0,0,0,0,0,0,0,0,0,0,0,0,0,0,0,0,0,0,0,0,0,0,0,0,0,0,0,0,0,0,0,0,0,0,0,0,0,0,0,0,0,0,0,0,0,0,0,0,0,0,0,-2.4867,-2.4868,0,-2.4966,-2.4967,-2.4968,-2.499,-2.4989,-2.4989,-2.4988,-2.509,-2.5093,-2.5097,0,0,0,0,0,0,0,0,0,0,0,0,0,-2.4699,-2.4702,-2.4867,-2.4868,-2.4869,-2.4966,-2.4967,-2.4968,-2.499,-2.4989,-2.4988,-2.4988,-2.5089,-2.5093,-2.5097,0,0,0,0,0,0,0,0,0,0,0,0,0,-2.4782,-2.4703,-2.4867,-2.4892,-2.4895,-2.4965,-2.4967,-2.4969,-2.499,-2.4989,-2.4988,-2.4987,-2.5087,-2.5092,-2.5097,-2.515,0,0,-2.5113,-2.5115,0,0,0,0,0,0,0,0,-2.4778,-2.4788,-2.4887,-2.489,-2.4894,-2.4964,-2.4945,-2.5029,-2.4991,-2.4954,-2.4988,-2.4987,-2.5049,-2.5057,-2.5078,-2.5155,-2.5159,-2.5113,-2.5116,-2.5119,-2.512,0,0,0,0,0,0,0,-2.4772,-2.4784,-2.4906,-2.4888,-2.4893,-2.4899,-2.4909,-2.4961,-2.5006,-2.4957,-2.4959,-2.497,-2.5051,-2.5073,-2.5081,-2.5161,-2.5113,-2.5118,-2.5121,-2.5123,-2.5286,-2.5287,0,0,0,0,0,0,-2.4761,-2.4779,-2.4903,-2.4909,-2.4832,-2.4903,-2.4915,-2.4943,-2.5006,-2.5014,-2.4971,-2.4971,-2.5065,-2.5075,-2.5084,-2.515,-2.5119,-2.5123,-2.5126,-2.5284,-2.5286,-2.5287,0,0,0,0,0,0,-2.4758,-2.4772,-2.4899,-2.4845,-2.4861,-2.4907,-2.4938,-2.4945,-2.4968,-2.5016,-2.5025,-2.4986,-2.5065,-2.5077,-2.5133,-2.5154,-2.5126,-2.513,-2.5283,-2.5285,-2.5287,-2.5281,0,0,0,0,0,0,-2.4753,-2.4771,-2.4791,-2.4845,-2.4864,-2.4946,-2.494,-2.4948,-2.4976,-2.4977,-2.5032,-2.504,-2.5065,-2.5126,-2.5138,-2.516,-2.5134,-2.5281,-2.5284,-2.5286,-2.5279,-2.5282,-2.5285,0,0,0,0,0,-2.4747,-2.4785,-2.4791,-2.4806,-2.489,-2.4947,-2.4958,-2.4985,-2.4978,-2.4998,-2.503,-2.5038,-2.515,-2.5131,-2.5146,-2.5169,-2.528,-2.5283,-2.5286,-2.5278,-2.5282,-2.5285,0,0,0,0,0,0,-2.4732,-2.4793,-2.48,-2.4857,-2.4897,-2.495,-2.4977,-2.4988,-2.503,-2.5029,-2.5062,-2.5074,-2.5128,-2.5155,-2.5133,-2.5224,-2.5215,-2.5221,-2.5204,-2.5208,-2.521,-2.5202,-2.5138,0,0,0,0,0,-2.4735,-2.4776,-2.4827,-2.4873,-2.4892,-2.4931,-2.4957,-2.4975,-2.5017,-2.5034,-2.5069,-2.511,-2.5155,-2.5183,-2.5226,-2.5284,-2.5296,-2.5308,-2.531,-2.5312,-2.5316,-2.5349,-2.5355,-2.5297,-2.5297,-2.5297,0,0,-2.4743,-2.4781,-2.4805,-2.4871,-2.4903,-2.4945,-2.4945,-2.4989,-2.5021,-2.5041,-2.5095,-2.5123,-2.5171,-2.5228,-2.5255,-2.5252,-2.5335,-2.5316,-2.5317,-2.532,-2.5353,-2.5358,-2.5363,-2.5299,-2.5299,-2.5298,0,0,-2.4777,-2.4811,-2.4852,-2.4885,-2.4934,-2.496,-2.497,-2.5022,-2.5041,-2.5097,-2.5113,-2.5152,-2.5227,-2.5261,-2.5287,-2.5336,-2.5346,-2.535,-2.5363,-2.5395,-2.5399,-2.5403,-2.542,-2.5426,-2.5354,-2.5354,-2.5354,0,-2.478,-2.4843,-2.4872,-2.4916,-2.4944,-2.4964,-2.5007,-2.5038,-2.5099,-2.5118,-2.5114,-2.5209,-2.5243,-2.5308,-2.532,-2.5342,-2.5354,-2.5343,-2.5396,-2.5401,-2.5405,-2.5421,-2.5428,-2.5354,-2.5354,-2.5354,-2.5354,0,-2.4844,-2.4888,-2.4916,-2.4974,-2.5006,-2.5049,-2.5084,-2.5114,-2.5129,-2.5156,-2.5213,-2.5254,-2.5306,-2.5324,-2.5339,-2.5391,-2.5388,-2.539,-2.5381,-2.541,-2.5426,-2.5432,-2.5354,-2.5354,-2.5354,-2.5354,0,0,-2.4871,-2.4945,-2.4954,-2.4981,-2.5038,-2.5072,-2.5117,-2.5167,-2.5192,-2.5234,-2.5272,-2.5336,-2.5338,-2.5368,-2.5388,-2.5416,-2.5452,-2.5415,-2.5416,-2.5419,-2.5512,-2.5509,-2.5516,-2.5459,-2.546,-2.5461,-2.5507,0,-2.4911,-2.499,-2.5018,-2.5083,-2.5124,-2.5144,-2.5183,-2.5222,-2.5248,-2.5287,-2.5317,-2.5362,-2.5362,-2.538,-2.5409,-2.5441,-2.547,-2.5438,-2.5494,-2.5496,-2.548,-2.5524,-2.5521,-2.5562,-2.5514,-2.5515,-2.5516,0,-2.4969,-2.5011,-2.508,-2.5132,-2.515,-2.5184,-2.5233,-2.527,-2.5316,-2.5333,-2.5368,-2.5386,-2.5433,-2.5423,-2.549,-2.5467,-2.5492,-2.5512,-2.5514,-2.5519,-2.5506,-2.5529,-2.5576,-2.5582,-2.5526,-2.5525,-2.5524,0,-2.498,-2.5055,-2.5105,-2.5128,-2.519,-2.5213,-2.524,-2.5284,-2.5313,-2.5357,-2.5376,-2.5425,-2.5451,-2.5489,-2.552,-2.5509,-2.5583,-2.5576,-2.5599,-2.5598,-2.5612,-2.5611,-2.5662,-2.563,-2.563,-2.563,-2.563,0,-2.5022,-2.5063,-2.5111,-2.5142,-2.5189,-2.5222,-2.5268,-2.5296,-2.5335,-2.5373,-2.5395,-2.5429,-2.5469,-2.5509,-2.5534,-2.5585,-2.5597,-2.5613,-2.5618,-2.561,-2.5608,-2.5626,-2.5623,-2.5632,-2.5631,-2.5631,-2.5631,0,-2.5042,-2.5076,-2.5132,-2.5186,-2.5201,-2.5233,-2.528,-2.5311,-2.5339,-2.5387,-2.54,-2.5444,-2.5492,-2.5527,-2.559,-2.5607,-2.5662,-2.5668,-2.5646,-2.5648,-2.5669,-2.5667,-2.5734,-2.5744,-2.5706,-2.5706,-2.5706,0,-2.5065,-2.5097,-2.5155,-2.5181,-2.5208,-2.5251,-2.528,-2.5314,-2.5344,-2.5398,-2.5423,-2.5473,-2.5515,-2.5592,-2.563,-2.5678,-2.5685,-2.5706,-2.5693,-2.5683,-2.5685,-2.5682,-2.5685,-2.5707,-2.5707,-2.5707,-2.5708,0,-2.5104,-2.5119,-2.516,-2.5208,-2.5243,-2.5282,-2.5322,-2.5343,-2.5383,-2.5416,-2.5466,-2.5498,-2.5563,-2.5612,-2.5664,-2.5693,-2.5707,-2.5712,-2.5719,-2.571,-2.5696,-2.5703,-2.565,-2.571,-2.5709,-2.5709,-2.5709,-2.5709,-2.5126,-2.5155,-2.52,-2.5246,-2.5279,-2.5316,-2.5348,-2.538,-2.5422,-2.5476,-2.5494,-2.5545,-2.5591,-2.5663,-2.5692,-2.5734,-2.5733,-2.5744,-2.5747,-2.5749,-2.5748,-2.569,-2.5743,-2.5743,-2.5743,-2.5743,-2.5743,0,-2.5164,-2.5194,-2.5236,-2.5291,-2.5327,-2.5337,-2.5382,-2.5412,-2.5456,-2.5498,-2.5538,-2.5596,-2.5644,-2.5686,-2.5737,-2.5761,-2.5769,-2.5773,-2.5771,-2.5778,-2.5746,-2.5734,-2.5766,-2.5766,-2.5766,-2.5766,-2.5766,-2.5766,-2.5188,-2.5239,-2.5259,-2.5327,-2.5357,-2.5407,-2.5432,-2.5466,-2.5499,-2.5562,-2.5602,-2.5629,-2.5671,-2.5725,-2.577,-2.5781,-2.5798,-2.5801,-2.5813,-2.5783,-2.578,-2.5777,-2.5766,-2.5804,-2.5804,-2.5841,-2.5842,-2.5842]},{"header":{"parameterUnit":"m.s-1","parameterCategory":1,"la1":30.2991,"la2":30.254,"lo1":-89.0895,"lo2":-89.0444,"dy":0.0017,"dx":0.0017,"nx":28,"ny":28,"refTime":"2026-01-09T09:00:00:Z","depth":0,"parameterNumber":3,"parameterNumberName":"V-component_of_WINDS"},"data":[0,0,0,0,0,0,0,0,0,0,0,0,0,0,0,0,0,0,0,0,0,0,0,0,0,0,0,0,0,0,0,0,0,0,0,0,0,0,0,0,0,0,0,0,0,0,0,0,0,0,0,0,0,0,0,0,0,0,5.2396,5.2397,0,5.2535,5.2537,5.2538,5.2558,5.2557,5.2556,5.2554,5.2692,5.2696,5.2701,0,0,0,0,0,0,0,0,0,0,0,0,0,5.2143,5.2148,5.2395,5.2397,5.2399,5.2535,5.2537,5.2539,5.2558,5.2557,5.2555,5.2554,5.269,5.2696,5.2702,0,0,0,0,0,0,0,0,0,0,0,0,0,5.2264,5.2149,5.2395,5.2425,5.243,5.2534,5.2537,5.2539,5.2559,5.2557,5.2555,5.2553,5.2688,5.2695,5.2702,5.2785,0,0,5.2725,5.2728,0,0,0,0,0,0,0,0,5.2258,5.2274,5.2419,5.2424,5.2428,5.2527,5.2498,5.2621,5.2559,5.251,5.2554,5.2552,5.2638,5.2649,5.268,5.2792,5.2797,5.2725,5.273,5.2733,5.2735,0,0,0,0,0,0,0,5.2249,5.2268,5.2451,5.2421,5.2427,5.2431,5.2446,5.2521,5.2583,5.2514,5.2516,5.2532,5.264,5.2673,5.2683,5.2799,5.2725,5.2731,5.2736,5.2739,5.2989,5.2991,0,0,0,0,0,0,5.2236,5.2261,5.2446,5.2455,5.2337,5.2437,5.2454,5.2497,5.2582,5.2593,5.2534,5.2532,5.2661,5.2674,5.2688,5.2793,5.2733,5.2739,5.2744,5.2987,5.299,5.2992,0,0,0,0,0,0,5.223,5.2252,5.244,5.2358,5.2383,5.2443,5.2492,5.2501,5.2534,5.2597,5.2607,5.2556,5.266,5.2678,5.2762,5.2798,5.2743,5.2749,5.2984,5.2988,5.2991,5.3002,0,0,0,0,0,0,5.2223,5.225,5.2283,5.2359,5.2387,5.2513,5.2494,5.2505,5.2547,5.2547,5.262,5.2631,5.266,5.2751,5.2769,5.2807,5.2755,5.2981,5.2986,5.299,5.2998,5.3005,5.3011,0,0,0,0,0,5.2214,5.2278,5.2284,5.2307,5.243,5.2515,5.2531,5.2565,5.2549,5.2583,5.2624,5.2628,5.2791,5.2759,5.278,5.282,5.2979,5.2985,5.299,5.2996,5.3004,5.3011,0,0,0,0,0,0,5.2202,5.2289,5.2296,5.2388,5.2445,5.2519,5.2562,5.2572,5.2633,5.263,5.2668,5.2684,5.2767,5.2802,5.2766,5.2906,5.2883,5.2893,5.2881,5.2889,5.2895,5.2886,5.2761,0,0,0,0,0,5.2211,5.2275,5.2346,5.242,5.2448,5.25,5.2538,5.256,5.262,5.2643,5.269,5.2746,5.281,5.2851,5.2913,5.3003,5.302,5.3041,5.3047,5.3052,5.306,5.3113,5.3124,5.3009,5.3009,5.3009,0,0,5.2228,5.2283,5.2321,5.2419,5.2465,5.2531,5.252,5.2588,5.2637,5.2653,5.2737,5.2773,5.2838,5.2927,5.2967,5.2958,5.3096,5.3059,5.3062,5.3068,5.3119,5.313,5.314,5.3013,5.3012,5.3012,0,0,5.2294,5.2341,5.241,5.2457,5.2529,5.2563,5.2579,5.2653,5.2679,5.2764,5.2778,5.2835,5.2944,5.2991,5.3029,5.3115,5.3122,5.3133,5.3166,5.3217,5.3226,5.3234,5.3267,5.3278,5.3141,5.3141,5.3141,0,5.2306,5.2406,5.2442,5.2512,5.2555,5.2575,5.2645,5.2688,5.2775,5.2804,5.2792,5.2932,5.2976,5.3077,5.3099,5.3128,5.3148,5.3126,5.3222,5.3231,5.3239,5.3271,5.3283,5.3142,5.3142,5.3142,5.3142,0,5.2419,5.2488,5.2534,5.2621,5.2669,5.2738,5.2785,5.2829,5.2846,5.2882,5.2969,5.3024,5.3099,5.3124,5.314,5.3228,5.322,5.3214,5.3193,5.325,5.3281,5.3293,5.3144,5.3143,5.3143,5.3143,0,0,5.2481,5.2589,5.2606,5.2647,5.2728,5.2782,5.2851,5.2927,5.2965,5.3024,5.3085,5.3177,5.3174,5.3217,5.3239,5.3283,5.3351,5.3273,5.3275,5.3287,5.3453,5.3459,5.3472,5.3356,5.3358,5.336,5.3449,0,5.2558,5.2686,5.2722,5.2829,5.2894,5.2915,5.2976,5.3032,5.3067,5.3127,5.3165,5.3231,5.322,5.3247,5.3292,5.3333,5.3385,5.3327,5.3412,5.3415,5.3398,5.3488,5.3493,5.3574,5.3461,5.3463,5.3464,0,5.2664,5.273,5.2845,5.2921,5.2949,5.3004,5.3077,5.3134,5.3198,5.3221,5.327,5.3289,5.3362,5.3336,5.3438,5.3398,5.3434,5.346,5.3464,5.3475,5.3444,5.3503,5.3601,5.3614,5.3483,5.3481,5.348,0,5.2702,5.2817,5.2902,5.2936,5.3026,5.3064,5.3103,5.3165,5.3209,5.3273,5.3302,5.3372,5.3411,5.3464,5.3501,5.3478,5.3601,5.3577,5.3623,5.3622,5.3649,5.3647,5.3756,5.3669,5.3669,5.3668,5.3668,0,5.2785,5.2855,5.2921,5.2973,5.3052,5.3092,5.3169,5.3208,5.3264,5.3324,5.3345,5.34,5.3445,5.3506,5.3535,5.3617,5.3633,5.3654,5.3661,5.3653,5.3651,5.3679,5.3675,5.3672,5.3671,5.367,5.367,0,5.284,5.2887,5.2981,5.3059,5.308,5.3136,5.3202,5.3253,5.329,5.3365,5.3385,5.3442,5.3516,5.3558,5.3649,5.3669,5.3761,5.3764,5.374,5.3744,5.3788,5.3784,5.392,5.3941,5.3838,5.3839,5.384,0,5.2891,5.2947,5.3032,5.3075,5.3115,5.3183,5.3229,5.327,5.3317,5.3396,5.3438,5.3513,5.3576,5.3693,5.3741,5.3812,5.3819,5.3862,5.3829,5.3821,5.3822,5.382,5.3826,5.3867,5.3868,5.3869,5.387,0,5.2979,5.3,5.3066,5.3142,5.3197,5.3258,5.3318,5.3352,5.3403,5.3455,5.3532,5.3581,5.3676,5.3751,5.3826,5.3865,5.3877,5.388,5.3894,5.3888,5.3873,5.3885,5.3758,5.3876,5.3876,5.3875,5.3875,5.3875,5.3035,5.3086,5.3155,5.323,5.328,5.3336,5.339,5.3434,5.35,5.3583,5.3602,5.3684,5.3748,5.3851,5.3891,5.3955,5.3947,5.3968,5.3974,5.3979,5.3982,5.3862,5.3968,5.3968,5.3968,5.3968,5.3968,0,5.3126,5.3172,5.324,5.3325,5.3384,5.3391,5.3459,5.3507,5.358,5.3639,5.3702,5.3791,5.3864,5.392,5.3995,5.4035,5.4043,5.4054,5.4052,5.4061,5.3983,5.3964,5.4047,5.4047,5.4047,5.4047,5.4047,5.4047,5.318,5.3268,5.3297,5.341,5.3455,5.3538,5.3576,5.3628,5.3677,5.3777,5.3839,5.3875,5.3933,5.4013,5.4081,5.4095,5.4123,5.4134,5.4149,5.4075,5.4066,5.4058,5.4041,5.4139,5.4139,5.4222,5.4223,5.4224]}]]